Tracking 19246 objects as of 19-Aug-2018
HD Live streaming from Space Station
objects crossing your sky now

RADUGA 1-7

Track RADUGA 1-7 now!
RADUGA 1-7 is classified as:


NORAD ID: 28194
Int'l Code: 2004-010A
Perigee: 35,759.3 km
Apogee: 35,787.5 km
Inclination: 10.3 °
Period: 1,435.1 minutes
Semi major axis: 42144 km
RCS: 12.5893 m2 (large)
Launch date: March 27, 2004
Source: Commonwealth of Independent States (former USSR) (CIS)
Launch site: TYURATAM MISSILE AND SPACE COMPLEX (TTMTR)

Military communication.
aabbcc
Your satellite tracking list
Your tracking list is empty




NASA's NSSDC Master Catalog

Two Line Element Set (TLE):
1 28194U 04010A   18231.15535712  .00000117  00000-0  00000+0 0  9991
2 28194  10.2903  42.3532 0003342 211.0195 166.5940  1.00344347 52735
Source of the keplerian elements: AFSPC